Total_Precipitation_Accumulation
0.42 0.39 0.34 0.35 0.39 0.43 0.48 0.56 0.64 0.81 0.91 0.97 1.09 1.27 1.44 1.60 1.76 1.85 1.73 1.57 1.54 1.73 1.87 1.80 1.88 1.89 1.77 1.78 1.85 1.90 1.86 1.66 1.51 1.57 1.47 1.18 0.93 0.99 0.96 0.90 0.93 0.98 1.08
0.27 0.24 0.21 0.23 0.26 0.28 0.33 0.41 0.50 0.57 0.69 0.87 1.12 1.33 1.60 1.68 1.77 1.88 1.92 1.83 1.77 1.96 2.00 2.07 2.17 2.19 2.19 2.14 2.04 2.17 2.32 2.04 1.78 1.88 2.18 1.80 1.39 1.00 0.80 0.86 0.90 1.00 1.22
0.20 0.15 0.15 0.18 0.23 0.23 0.24 0.32 0.43 0.56 0.79 1.02 1.34 1.63 1.89 1.97 2.02 1.96 1.99 2.04 2.09 2.18 2.22 2.27 2.33 2.34 2.18 2.18 2.29 2.44 2.78 2.58 2.20 1.98 2.24 2.10 1.78 1.45 1.00 0.90 0.94 1.03 1.19
0.18 0.15 0.16 0.16 0.19 0.23 0.28 0.40 0.58 0.77 1.03 1.35 1.72 1.98 2.22 2.34 2.18 2.12 2.13 2.12 2.09 2.14 2.26 2.25 2.24 2.21 2.15 2.21 2.28 2.33 2.76 2.95 2.65 2.30 1.92 1.71 1.67 1.75 1.47 1.07 1.00 1.07 1.08
0.23 0.20 0.22 0.23 0.28 0.36 0.45 0.62 0.89 1.19 1.45 1.68 1.86 2.08 2.22 2.24 2.19 2.11 2.10 2.04 2.01 2.00 2.02 2.02 2.11 2.14 2.18 2.24 2.40 2.52 2.79 2.81 2.80 2.62 2.41 2.19 1.87 1.53 1.59 1.54 1.26 1.19 1.09
0.28 0.29 0.31 0.38 0.46 0.54 0.69 0.87 1.07 1.37 1.56 1.68 1.78 1.94 2.09 2.13 2.11 2.09 2.07 2.08 2.05 1.95 1.88 1.84 1.92 2.05 2.19 2.25 2.34 2.50 2.74 2.85 2.92 2.83 2.56 2.47 2.31 2.01 1.89 1.63 1.48 1.46 1.24
0.39 0.39 0.49 0.64 0.71 0.76 0.86 1.02 1.12 1.32 1.43 1.48 1.57 1.70 1.76 1.80 1.82 1.80 1.76 1.70 1.66 1.66 1.70 1.78 1.87 2.01 2.10 2.17 2.30 2.44 2.50 2.61 2.84 2.84 2.66 2.45 2.27 2.25 2.11 1.99 1.66 1.49 1.30
0.55 0.66 0.80 0.89 0.96 0.98 0.96 1.00 1.15 1.19 1.19 1.24 1.24 1.34 1.43 1.48 1.52 1.49 1.47 1.50 1.54 1.56 1.52 1.57 1.65 1.87 2.06 2.13 2.23 2.24 2.22 2.28 2.47 2.46 2.52 2.49 2.22 2.18 2.06 2.03 2.10 1.83 1.62
0.80 1.02 1.20 1.30 1.38 1.31 1.15 1.02 1.01 1.00 0.99 1.09 1.16 1.20 1.26 1.30 1.30 1.31 1.24 1.31 1.36 1.37 1.33 1.36 1.40 1.52 1.74 1.97 2.13 2.08 2.00 1.96 2.12 2.18 2.27 2.39 2.42 2.33 2.22 2.17 2.23 2.17 1.92
1.22 1.49 1.72 1.84 1.81 1.62 1.37 1.12 0.96 0.91 0.89 0.96 1.06 1.14 1.14 1.14 1.12 1.13 1.05 1.09 1.17 1.16 1.14 1.15 1.22 1.37 1.50 1.69 1.91 2.00 1.94 1.92 1.97 2.08 2.20 2.33 2.43 2.48 2.27 2.23 2.20 2.05 1.97
1.65 1.81 1.97 2.02 1.76 1.59 1.35 1.10 0.95 0.96 0.98 1.02 1.06 1.08 1.03 1.01 1.00 0.96 0.89 0.93 0.98 0.95 0.96 1.14 1.20 1.27 1.35 1.55 1.82 1.99 2.01 1.93 1.93 1.89 1.96 2.14 2.23 2.44 2.40 2.31 2.20 2.06 1.91
1.43 1.52 1.60 1.56 1.52 1.47 1.29 1.12 1.03 1.03 1.08 1.11 1.15 1.09 0.99 0.94 0.95 0.92 0.82 0.79 0.76 0.73 0.82 0.95 1.00 1.05 1.10 1.28 1.57 1.76 1.81 1.80 1.71 1.68 1.80 2.01 2.18 2.39 2.48 2.43 2.26 2.17 2.04
1.24 1.24 1.26 1.32 1.35 1.32 1.19 1.17 1.14 1.15 1.15 1.14 1.06 0.99 0.92 0.83 0.79 0.71 0.65 0.70 0.70 0.76 0.86 0.93 0.97 1.00 1.06 1.10 1.20 1.36 1.48 1.48 1.44 1.47 1.53 1.57 1.77 2.04 2.22 2.23 2.24 2.29 2.26
0.99 0.98 1.06 1.15 1.21 1.18 1.14 1.09 1.05 1.09 1.19 1.26 1.18 1.07 0.96 0.87 0.83 0.73 0.65 0.63 0.65 0.73 0.82 0.86 0.92 0.99 1.03 1.04 1.05 1.07 1.14 1.15 1.21 1.28 1.31 1.35 1.41 1.64 1.81 1.90 2.08 2.31 2.33
0.67 0.71 0.77 0.78 0.75 0.71 0.77 0.81 0.87 0.97 1.13 1.27 1.25 1.12 0.96 0.85 0.80 0.76 0.68 0.65 0.65 0.65 0.73 0.79 0.78 0.82 0.91 1.00 1.03 0.91 0.87 0.96 1.07 1.09 1.04 1.06 1.15 1.29 1.41 1.46 1.81 2.16 2.34
0.43 0.42 0.44 0.44 0.43 0.39 0.39 0.41 0.49 0.64 0.88 1.14 1.12 0.92 0.76 0.64 0.59 0.62 0.63 0.62 0.59 0.63 0.68 0.66 0.68 0.76 0.79 0.94 0.93 0.77 0.76 0.82 0.91 0.99 0.96 0.85 0.83 0.88 0.98 1.06 1.23 1.51 1.75
0.31 0.31 0.31 0.30 0.30 0.30 0.29 0.32 0.39 0.50 0.67 0.79 0.77 0.68 0.57 0.54 0.58 0.61 0.56 0.57 0.59 0.59 0.61 0.60 0.59 0.63 0.76 0.81 0.66 0.65 0.68 0.75 0.81 0.87 0.92 0.82 0.71 0.79 0.84 0.95 1.02 1.03 1.10
0.23 0.22 0.22 0.22 0.26 0.27 0.31 0.35 0.40 0.44 0.48 0.51 0.53 0.49 0.47 0.48 0.52 0.53 0.53 0.61 0.67 0.65 0.65 0.66 0.64 0.62 0.69 0.68 0.56 0.61 0.62 0.67 0.71 0.81 0.90 0.94 0.85 0.85 0.95 0.96 0.99 0.94 0.89
0.15 0.14 0.13 0.13 0.16 0.16 0.17 0.18 0.21 0.23 0.24 0.23 0.24 0.25 0.25 0.28 0.30 0.31 0.38 0.50 0.57 0.61 0.66 0.71 0.70 0.62 0.60 0.64 0.55 0.57 0.61 0.65 0.69 0.71 0.78 0.86 0.83 0.97 1.08 1.06 1.18 1.16 1.03
0.12 0.11 0.10 0.11 0.13 0.13 0.12 0.11 0.12 0.12 0.13 0.13 0.14 0.16 0.18 0.17 0.17 0.21 0.26 0.32 0.33 0.40 0.51 0.53 0.56 0.59 0.57 0.73 0.62 0.61 0.62 0.68 0.78 0.81 0.78 0.93 0.94 1.03 1.01 0.98 1.20 1.22 1.09
0.12 0.12 0.11 0.11 0.12 0.14 0.13 0.12 0.12 0.12 0.13 0.16 0.19 0.20 0.19 0.20 0.21 0.23 0.25 0.27 0.28 0.32 0.36 0.40 0.44 0.52 0.61 0.75 0.73 0.76 0.74 0.78 0.90 0.88 0.81 0.76 0.89 0.78 0.86 0.89 0.91 1.13 1.13
0.11 0.12 0.11 0.12 0.13 0.13 0.13 0.13 0.14 0.14 0.14 0.17 0.18 0.21 0.22 0.23 0.23 0.24 0.27 0.29 0.30 0.29 0.31 0.32 0.36 0.42 0.48 0.58 0.65 0.66 0.70 0.79 0.87 0.91 0.80 0.78 0.86 0.70 0.68 0.70 0.81 0.99 1.10
0.09 0.10 0.12 0.12 0.13 0.14 0.13 0.13 0.15 0.16 0.16 0.17 0.18 0.20 0.22 0.22 0.20 0.22 0.26 0.28 0.30 0.31 0.33 0.35 0.40 0.45 0.49 0.53 0.53 0.51 0.54 0.61 0.69 0.71 0.76 0.77 0.75 0.69 0.64 0.64 0.73 0.81 0.90
0.09 0.10 0.12 0.13 0.15 0.15 0.15 0.17 0.17 0.16 0.16 0.18 0.19 0.20 0.21 0.21 0.20 0.21 0.23 0.25 0.28 0.31 0.35 0.40 0.44 0.49 0.51 0.53 0.51 0.55 0.58 0.56 0.57 0.57 0.57 0.59 0.64 0.67 0.64 0.63 0.67 0.75 0.86
0.12 0.14 0.15 0.15 0.15 0.17 0.18 0.21 0.21 0.18 0.17 0.17 0.18 0.18 0.18 0.19 0.20 0.20 0.21 0.22 0.24 0.30 0.39 0.44 0.48 0.47 0.45 0.43 0.45 0.56 0.65 0.71 0.76 0.80 0.72 0.71 0.71 0.69 0.64 0.61 0.62 0.68 0.76
0.13 0.15 0.17 0.17 0.16 0.17 0.19 0.21 0.23 0.25 0.24 0.21 0.18 0.17 0.17 0.18 0.18 0.19 0.20 0.22 0.23 0.29 0.33 0.34 0.35 0.36 0.36 0.38 0.39 0.45 0.56 0.66 0.79 0.95 0.92 0.95 0.96 0.90 0.80 0.70 0.63 0.60 0.62